Regional Weather Roundup
Issued by NWS Jackson, KY

Home | Current Version | Previous Version | Text Only | Print | Product List | Glossary Off
Versions: 1 2 3 4 5 6 7 8 9 10 11 12 13 14 15 16 17 18 19 20 21 22 23 24 25 26 27 28 29 30 31 32 33 34 35 36 37 38 39 40 41 42 43 44 45 46 47 48 49 50

000
ASUS43 KJKL 260510
RWRJKL

EAST KENTUCKY HOURLY WEATHER ROUNDUP
NATIONAL WEATHER SERVICE JACKSON KY
100 AM EDT SUN OCT 26 2014

NOTE: "FAIR" INDICATES FEW OR NO CLOUDS BELOW 12,000 FEET WITH
NO SIGNIFICANT WEATHER AND/OR OBSTRUCTIONS TO VISIBILITY.

* THESE REPORTS ARE NOT UNDER NWS QUALITY CONTROL AND MAY NOT
  REPORT WEATHER SUCH AS PRECIPITATION AND FOG.

KYZ079-080-083-085-087-088-110-112-115-119-120-260600
...EASTERN KENTUCKY...

CITY           SKY/WX    TMP DP  RH WIND       PRES   REMARKS
JACKSON        CLEAR     59  55  87 SW3       29.96F
LONDON         CLEAR     54  50  86 CALM      29.99F FOG
SOMERSET*      PTCLDY    52  52 100 CALM      30.01S FOG
MONTICELLO*    FOG       46  46 100 CALM      30.01F VSB<1/4
WILLIAMSBURG*  CLEAR     57  57 100 MISG      29.99F
MIDDLESBORO*   FOG       47  47 100 CALM      30.00F VSB 1/2
HARLAN APT*    CLEAR     50  50 100 E8        30.00F
HAZARD APT*    CLEAR     57  55  94 SW5       29.97
BLACK MTN*       N/A     54  54 100 NE2         N/A
PIKEVILLE APT* CLEAR     59  54  82 SW3       29.95F
BIG SANDY*     CLEAR     60  56  85 W6        29.93F
MOREHEAD APT*  CLEAR     63  55  77 W6        29.95S
$$

KYZ035-036-041-042-044-050-067-078-099-260600
...CENTRAL KENTUCKY...

CITY           SKY/WX    TMP DP  RH WIND       PRES   REMARKS
MT STERLING*   CLEAR     59  55  88 W8        29.96F FOG
FLEMING/MASON* CLEAR     57  54  88 W6        29.95R
DANVILLE*      CLEAR     59  55  88 W5        29.99S
RICHMOND*      CLEAR     59  55  88 W6        29.96F
LEXINGTON      CLEAR     60  54  80 SW6       29.96F
FRANKFORT      CLEAR     62  54  74 W7        29.95S
$$

KYZ091>093-OHZ055-061-077-WVZ005-015-034-035-042-260600
...SOUTHERN OHIO/WEST VIRGINIA...

CITY           SKY/WX    TMP DP  RH WIND       PRES   REMARKS
COVINGTON      CLEAR     63  43  48 NW15      29.94R
COLUMBUS       CLEAR     52  39  61 W7        29.87F
DAYTON         CLEAR     54  43  66 W8        29.93S
WILMINGTON     CLEAR     59  43  55 NW12      29.92R
HUNTINGTON     CLEAR     58  55  90 SW7       29.89F
CHARLESTON     CLEAR     59  53  80 VRB5      29.88F
PINEVILLE*     PTCLDY    46  46  99 MISG      29.98F
BECKLEY        CLEAR     55  50  83 W15       29.92F
BLUEFIELD      CLOUDY    58  51  78 W14       29.95F
$$

VAZ002-007-008-TNZ017-027-036-066-071-260600
...SOUTHWEST VIRGINIA/EAST TENNESSEE...

CITY           SKY/WX    TMP DP  RH WIND       PRES   REMARKS
WISE*          PTCLDY    54  52  94 W8        30.01F
JONESVILLE*    CLEAR     45  45 100 CALM      30.02F FOG
ABINGDON*      CLEAR     54  49  83 W5        30.00S
BRISTOL        PTCLDY    53  48  83 W5        29.99F
KNOXVILLE      CLEAR     57  50  77 CALM      30.01F
OAK RIDGE      CLEAR     52  50  93 CALM      30.03F
CROSSVILLE     CLEAR     57  53  86 CALM      30.05F
NASHVILLE      CLEAR     59  58  96 S6        30.02F FOG
$$

...KEY TO REMARKS...
VSB - VISIBILITY IN MILES
WCI - WIND CHILL INDEX
HX  - HEAT INDEX

$$



USA.gov is the U.S. government's official web portal to all federal, state and local government web resources and services.